[Iaude] MPEC J299: 2024 JY16 [a=2.33,e=0.57,i=26.1,H=24.7]
    mpec at cfa.harvard.edu 
    mpec at cfa.harvard.edu
       
    Mon May 13 19:48:00 EDT 2024
    
    
  
M.P.E.C. 2024-J299                                 Issued 2024 May 13, 23:46 UT
     The Minor Planet Electronic Circulars contain information on unusual
         minor planets, routine data on comets and natural satellites,
         and occasional editorial announcements.  They are published
    on behalf of Division F of the International Astronomical Union by the
          Minor Planet Center, Smithsonian Astrophysical Observatory,
                          Cambridge, MA 02138, U.S.A.
			  
             Prepared using the Tamkin Foundation Computer Network
                              MPC at CFA.HARVARD.EDU
            URL https://www.minorplanetcenter.net/    ISSN 1523-6714
                                   2024 JY16                                    
Observations:
     K24J16Y*1C2024 05 13.32722114 17 46.212+67 52 34.79         18.81GVEJ299703
     K24J16Y 1C2024 05 13.32962514 17 39.397+67 52 12.18         18.81GVEJ299703
     K24J16Y 1C2024 05 13.33444314 17 25.386+67 51 26.32         19.14GVEJ299703
     K24J16Y  C2024 05 13.34850114 16 41.688+67 48 42.33         18.2 GVEJ299H01
     K24J16Y KC2024 05 13.35135214 16 36.840+67 48 38.38         18.22GVEJ299I52
     K24J16Y KC2024 05 13.35194114 16 35.134+67 48 32.44         18.09GVEJ299I52
     K24J16Y  C2024 05 13.35197514 16 31.763+67 48 06.72         18.0 GVEJ299H01
     K24J16Y KC2024 05 13.35252114 16 33.460+67 48 26.42         18.12GVEJ299I52
     K24J16Y KC2024 05 13.35310714 16 31.775+67 48 20.56         18.16GVEJ299I52
     K24J16Y  C2024 05 13.36395814 15 57.393+67 46 01.33         18.4 GVEJ299H01
     K24J16Y  C2024 05 13.37134714 15 36.174+67 44 42.08         18.9 GVEJ299H01
     K24J16Y KC2024 05 13.45383614 11 38.926+67 28 51.28         18.45GVEJ299I52
     K24J16Y KC2024 05 13.45441714 11 37.266+67 28 43.79         18.71GVEJ299I52
     K24J16Y KC2024 05 13.45500814 11 35.567+67 28 36.12         18.61GVEJ299I52
     K24J16Y KC2024 05 13.45560414 11 33.810+67 28 28.27         18.65GVEJ299I52
     K24J16Y KB2024 05 13.55009 14 09 01.94 +67 14 30.8          18.2 GVEJ299P13
     K24J16Y KB2024 05 13.55930 14 08 30.47 +67 12 53.2          17.9 GVEJ299P13
     K24J16Y KB2024 05 13.56483 14 08 11.41 +67 11 52.7          19.1 GVEJ299P13
     K24J16Y KB2024 05 13.57336 14 07 41.49 +67 10 17.8          18.0 GVEJ299P13
     K24J16Y KB2024 05 13.67526 14 02 55.75 +66 48 18.5          17.7 rZEJ299M44
     K24J16Y KB2024 05 13.67925 14 02 40.40 +66 47 30.5          18.0 rZEJ299M44
     K24J16Y KB2024 05 13.68384 14 02 22.57 +66 46 33.6          18.1 rZEJ299M44
     K24J16Y KC2024 05 13.79865 13 54 58.25 +66 12 48.0          17.4 VqEJ299L04
     K24J16Y KC2024 05 13.80078 13 54 48.90 +66 12 11.9          17.5 VqEJ299L04
     K24J16Y KC2024 05 13.80241 13 54 41.79 +66 11 44.3          17.4 VqEJ299L04
     K24J16Y KC2024 05 13.80516 13 54 29.76 +66 10 57.1          17.7 VqEJ299L04
     K24J16Y KC2024 05 13.82050 13 53 26.24 +66 06 04.7          17.9 GVEJ299K88
     K24J16Y KC2024 05 13.82239 13 53 17.81 +66 05 30.9          17.9 GVEJ299K88
     K24J16Y KC2024 05 13.82434 13 53 09.09 +66 04 56.3          17.9 GVEJ299K88
     K24J16Y KC2024 05 13.82726 13 52 53.482+66 04 07.39         18.2 VZEJ299M38
     K24J16Y KC2024 05 13.83205 13 52 31.759+66 02 39.16         18.4 VZEJ299M38
     K24J16Y KC2024 05 13.83994 13 52 06.382+65 59 15.72         17.5 GXEJ299G19
     K24J16Y 1C2024 05 13.84119 13 52 01.96 +65 58 48.2          18.5 VXEJ299033
     K24J16Y 1C2024 05 13.84154 13 52 00.39 +65 58 41.8          18.7 VXEJ299033
     K24J16Y 1C2024 05 13.84188 13 51 58.84 +65 58 35.4          18.7 VXEJ299033
     K24J16Y 1C2024 05 13.84222 13 51 57.30 +65 58 29.0          18.5 VXEJ299033
     K24J16Y KB2024 05 13.84466813 51 48.758+65 57 52.88         17.4 GXEJ299K74
     K24J16Y KB2024 05 13.84650713 51 40.385+65 57 18.25         17.7 GXEJ299K74
     K24J16Y KB2024 05 13.84834613 51 31.987+65 56 43.22         17.9 GXEJ299K74
     K24J16Y KB2024 05 13.85013513 51 23.779+65 56 09.64         17.4 GXEJ299K74
     K24J16Y KB2024 05 13.85187413 51 15.761+65 55 36.16         17.5 GXEJ299K74
     K24J16Y KB2024 05 13.85569613 51 00.912+65 54 05.19         17.7 GXEJ299B72
     K24J16Y KC2024 05 13.85786 13 50 44.333+65 53 32.68         18.1 GXEJ299G19
     K24J16Y KB2024 05 13.85876713 50 46.744+65 53 05.71         17.9 GXEJ299B72
     K24J16Y KB2024 05 13.86183913 50 32.459+65 52 05.57         18.3 GXEJ299B72
     K24J16Y KB2024 05 13.86496513 50 17.902+65 51 03.87         18.3 GXEJ299B72
     K24J16Y KB2024 05 13.87492 13 49 28.822+65 47 15.22         18.2 GVEJ299L65
     K24J16Y KB2024 05 13.87819 13 49 13.236+65 46 07.07         18.6 GVEJ299L65
     K24J16Y KB2024 05 13.87820 13 49 13.24 +65 46 07.1          18.6 GVEJ299L65
     K24J16Y KB2024 05 13.88147 13 48 57.689+65 44 59.28         18.7 GVEJ299L65
     K24J16Y KB2024 05 13.88148 13 48 57.69 +65 44 59.3          18.7 GVEJ299L65
     K24J16Y KB2024 05 13.88267 13 48 53.645+65 45 07.06         18.7 GXEJ299K35
     K24J16Y KB2024 05 13.88473 13 48 43.766+65 44 24.54         18.3 GXEJ299K35
     K24J16Y KB2024 05 13.88679 13 48 33.826+65 43 42.06         18.4 GXEJ299K35
     K24J16Y KB2024 05 13.88885 13 48 23.861+65 42 58.10         18.3 GXEJ299K35
     K24J16Y KB2024 05 13.89091 13 48 13.942+65 42 14.22         17.6 GXEJ299K35
     K24J16Y KB2024 05 13.89480 13 47 55.10 +65 40 51.0          18.5 GXEJ299K35
     K24J16Y KB2024 05 13.89982 13 47 30.58 +65 39 01.4          17.6 GXEJ299K35
     K24J16Y KB2024 05 13.90103 13 47 24.68 +65 38 34.6          17.8 GXEJ299K35
     K24J16Y KB2024 05 13.90344 13 47 12.82 +65 37 41.6          18.2 GXEJ299K35
     K24J16Y 1C2024 05 13.91871 13 45 52.23 +65 31 42.5          18.8 VXEJ299033
     K24J16Y 1C2024 05 13.91905 13 45 50.52 +65 31 34.5          18.8 VXEJ299033
     K24J16Y 1C2024 05 13.91939 13 45 48.83 +65 31 26.6          18.6 VXEJ299033
     K24J16Y KC2024 05 13.94137113 43 54.78 +65 22 30.4          17.6 GVEJ299G34
     K24J16Y KC2024 05 13.94301613 43 46.35 +65 21 49.2          17.6 GVEJ299G34
     K24J16Y KC2024 05 13.94465913 43 37.90 +65 21 07.4          17.5 GVEJ299G34
     K24J16Y KC2024 05 13.94629813 43 29.47 +65 20 25.8          17.3 GVEJ299G34
     K24J16Y KC2024 05 13.94794013 43 21.03 +65 19 44.0          17.5 GVEJ299G34
     K24J16Y KB2024 05 13.96260 13 42 01.06 +65 13 46.6          17.0 GXEJ299G00
     K24J16Y KB2024 05 13.96339 13 41 56.91 +65 13 25.6          17.1 GXEJ299G00
     K24J16Y KB2024 05 13.97150 13 41 14.14 +65 09 44.9          17.7 GXEJ299G00
     K24J16Y KB2024 05 13.97230 13 41 10.00 +65 09 23.1          17.7 GXEJ299G00
     K24J16Y KB2024 05 13.97300 13 41 06.23 +65 09 03.6          17.5 GXEJ299G00
Observer details:
033 Karl Schwarzschild Observatory, Tautenburg.  Observers C. Heogner, F.
    Ludwig, M. Hartmann, B. Stecklum.  Measurer B. Stecklum.  1.34-m f/3
    Schmidt + CCD.
703 Catalina Sky Survey.  Observer G. J. Leonard.  Measurers T. Beuden, V. F.
    Carvajal, D. Fay, J. B. Fazekas, D. C. Fuls, A. R. Gibbs, A. D. Grauer, H.
    Groeller, J. K. Hogan, R. A. Kowalski, S. M. Larson, G. J. Leonard, D.
    Rankin, R. L. Seaman, F. C. Shelly, K. W. Wierzchos.  0.68-m Schmidt + 10K
    CCD.
B72 Soerth Observatory.  Observer B. Koch.  0.36-m f/7.6 reflector + CMO.
G00 AZM Martinsberg, Oed.  Observers M. Jaeger, E. Prosperi.  Measurer M.
    Jaeger.  0.40-m f/3.2 reflector + CMO.
G19 Immanuel Kant Observatory,Limbach.  Observers I. Kuettner, B. Haeusler.
    Measurers I. Kuettner, D. Parrott.  0.28-m f/6.7 reflector + CCD.
G34 Oberfrauendorf.  Observer T. Felber.  0.35-m f/6.3 Schmidt-Cassegrain +
    CMOS.
H01 Magdalena Ridge Observatory, Socorro.  Observers W. H. Ryan, E. V. Ryan.
    Measurer W. H. Ryan.  2.4-m f/8.9 Ritchey-Chretien + CCD.
I52 Steward Observatory, Mt. Lemmon Station.  Observer T. Beuden.  Measurers
    T. Beuden, V. F. Carvajal, D. Fay, J. B. Fazekas, D. C. Fuls, A. R. Gibbs,
    A. D. Grauer, H. Groeller, J. K. Hogan, R. A. Kowalski, S. M. Larson, G.
    J. Leonard, D. Rankin, R. L. Seaman, F. C. Shelly, K. W. Wierzchos.  1.0-m
    prime focus + CCD.
K35 Huenfelden.  Observer P. Remmel.  0.36-m f/1.9 reflector + CMO.
K74 Muensterschwarzach Observatory, Schwarzach.  Observer C. Gerhard.  0.30-m
    f/3.75 reflector + CMO.
K88 GINOP-KHK, Piszkesteto.  Observers K. Sarneczky, B. Seli.  Measurer K.
    Sarneczky.  0.60-m Schmidt + CCD.
L04 ROASTERR-1 Observatory, Cluj-Napoca.  Observer L. Hudin.  0.30-m f/5
    reflector + CCD.
L65 Bredenkamp Observatory, Bremen.  Observer H. Duin.  0.23-m f/6.3 reflector
    + CMO.
M38 Harsona Observatory, Nyiregyhaza.  Observer T. Elek.  0.20-m f/3.0
    reflector + CCD.
M44 Al-Khatim Observatory, Abu Dhabi.  Observer M. Odeh.  0.36-m f/7.7 SC +
    CMO.
P13 Baihuashan Observatory, Beijing.  Observers Z. Wang, B. Liu.  Measurer Z.
    Wang.  0.28-m f/2.2 reflector + CMO.
Orbital elements:
2024 JY16                                                Earth MOID = 0.0005 AU
Epoch 2024 Mar. 31.0 TT = JDT 2460400.5                 Veres                   
M 347.76605              (2000.0)            P               Q                  
n   0.27637070     Peri.  179.10456     -0.59616911     +0.71945989             
a   2.3342178      Node    54.20741     -0.73931240     -0.31890716             
e   0.5666904      Incl.   26.05771     -0.31304883     -0.61698922             
P   3.57           H   24.78          G   0.15           U   7                  
Residuals in seconds of arc
240513 703  0.5+  0.2-    240513 L04  0.3-  0.1+    240513 L65  0.1-  0.1+
240513 703  0.9+  0.0     240513 L04  0.3-  0.0     240513 K35  0.1-  1.9-
240513 703  0.3-  0.4+    240513 K88  0.0   0.1-    240513 K35  0.1-  1.2-
240513 H01  0.1-  0.1-    240513 K88  0.0   0.1-    240513 K35  0.3-  0.2-
mailing list